Weather in Buranovo

Russia / Udmurt Republic     56°35′17″N   53°19′48″E
temp.,
°C
wind,
m/s
gust,
m/s
humid.,
%
clouds,
%
prec.,
mm/h
press.,
hPa
HPBL,
m
7 march, sun
sun701:00−16wsw229794 0.0 101121
04:00−18sw129988 0.1 101120
07:00−17sw229796 0.1 101021
10:00−13wsw239393 0.2 1010208
13:00−10wsw248699 0.1 1009608
16:00−10sw458999 0.2 1008609
19:00−14ssw449790 0.1 100778
22:00−16s479875 0.1 1007113
8 march, mon
mon801:00−13s51194100 0.1 1003335
04:00−11s61395100 0.6 1000551
07:00−10sse61394100 0.6 997577
10:00−6sse81294100 1.3 994755
13:00−3sw101486100 1.2 9931222
16:00−5wsw10157498 1.3 9951044
19:00−8wsw715877 0.0 998583
22:00−11sw489334 0.0 999153
9 march, tue
tue901:00−13sw349445 0.0 100039
04:00−14w349671 0.0 100260
07:00−16wnw369896 0.0 100491
10:00−11w349380 0.1 1007251
13:00−8w358797 0.0 1009590
16:00−8w238699 0.1 1010590
19:00−12wsw1196100 0.1 101022
22:00−13nne1297100 0.3 101120
10 march, wed
wed1001:00−14nne3497100 0.1 101079
04:00−15nne5995100 0.1 1010256
07:00−19nne61195100 0.1 1010333
10:00−20nne71295100 0.3 1011348
13:00−18n7118796 0.0 1012501
16:00−16n6108096 0.0 1013743
19:00−19nnw51188100 0.0 1015472
22:00−22nnw5129096 0.0 1016325
11 march, thu
thu1101:00−24nnw499452 0.0 1017166
04:00−26nw479743 0.0 101895
07:00−27nw359849 0.0 101983
10:00−21wnw469642 0.0 1020252
13:00−16wnw4693100 0.1 1019394
16:00−14wnw5792100 0.3 1020499
19:00−14w4895100 0.1 1020210
22:00−13w4996100 0.1 1022239